Change the Weather History Date:

Sunday, November 11, 2012

  Actual Average Record
Temperature  
Mean Temperature 36 °F -  
Max Temperature 41 °F - - ()
Min Temperature 32 °F - - ()
Degree Days  
Heating Degree Days 28    
Moisture  
Dew Point 30 °F    
Average Humidity 71    
Maximum Humidity 90    
Minimum Humidity 36    
Precipitation  
Precipitation 0.75 in - - ()
Sea Level Pressure  
Sea Level Pressure 30.17 in    
Wind  
Wind Speed 3 mph ()    
Max Wind Speed 7 mph    
Max Gust Speed -    
T = Trace of Precipitation, MM = Missing Value Source: Averaged Metar Reports

Daily Weather History Graph

Daily Weather History Graph

Search for Another Location

Airport or City:

Trip Planner

Search our weather history database for the weather conditions in past years. The results will help you decide how hot, cold, wet, or windy it might be!

Date:

Astronomy

Nov. 11, 2012 Rise Set
Actual Time 7:18 AM PST 4:35 PM PST
Civil Twilight 6:43 AM PST 5:09 PM PST
Nautical Twilight 6:04 AM PST 5:48 PM PST
Astronomical Twilight 5:27 AM PST 6:25 PM PST
Moon 4:27 AM PST (11/11) 3:10 PM PST (11/11)
Length of Visible Light 10h 26m
Length of Day
9h 17m
Waning Crescent, 6% of the Moon is Illuminated
Nov 11
Waning Crescent
Nov 13
New
Nov 20
First Quarter
Nov 28
Full
Dec 6
Last Quarter

Hourly Weather History & Observations

Time (PST) Temp. Windchill Dew Point Humidity Pressure Visibility Wind Dir Wind Speed Gust Speed Precip Events Conditions
12:00 AM 33.4 °F - 24.6 °F 70% 30.22 in - North 1.2 mph - N/A   Unknown
1:00 AM 31.3 °F - 24.8 °F 77% 30.23 in - Calm Calm - N/A   Unknown
2:00 AM 33.4 °F - 24.8 °F 71% 30.23 in - NE 1.2 mph - N/A   Unknown
3:00 AM 34.9 °F - 23.2 °F 62% 30.23 in - ENE 2.3 mph - N/A   Unknown
4:00 AM 36 °F - 19 °F 36% 30.21 in - East 3.5 mph - -  
4:00 AM 36.5 °F 33.9 °F 18.9 °F 49% 30.21 in - East 3.5 mph - N/A   Unknown
6:00 AM 37.9 °F 35.5 °F 16.7 °F 42% 30.22 in - ENE 3.5 mph - N/A   Unknown
7:00 AM 38.3 °F 34.8 °F 21.2 °F 50% 30.22 in - East 4.6 mph - N/A   Unknown
8:00 AM 39.2 °F 37.0 °F 22.5 °F 51% 30.21 in - East 3.5 mph - N/A   Unknown
9:00 AM 40.3 °F 38.2 °F 22.8 °F 50% 30.22 in - ENE 3.5 mph - N/A   Unknown
10:00 AM 40 °F - 26 °F 45% 30.23 in - East 3.5 mph - -  
10:00 AM 40.1 °F 38.0 °F 25.9 °F 57% 30.23 in - East 3.5 mph - N/A   Unknown
11:00 AM 40.8 °F - 29.7 °F 64% 30.23 in - ESE 2.3 mph - N/A   Unknown
12:00 PM 39.6 °F 37.4 °F 31.5 °F 73% 30.21 in - East 3.5 mph - N/A   Unknown
1:00 PM 39.0 °F 34.0 °F 32.9 °F 79% 30.19 in - East 6.9 mph - 0.01 in   Unknown
2:00 PM 39.0 °F 34.8 °F 34.2 °F 83% 30.17 in - East 5.8 mph - 0.02 in   Unknown
3:00 PM 40.1 °F 36.9 °F 35.8 °F 85% 30.15 in - ENE 4.6 mph - 0.03 in   Unknown
4:00 PM 40 °F - 36 °F 82% 30.14 in - ENE 5.8 mph - -  
4:00 PM 40.3 °F 36.3 °F 36.3 °F 86% 30.14 in - ENE 5.8 mph - N/A   Unknown
5:00 PM 40.5 °F 36.5 °F 36.9 °F 87% 30.12 in - ENE 5.8 mph - 0.04 in   Unknown
6:00 PM 39.6 °F 35.4 °F 36.5 °F 89% 30.10 in - East 5.8 mph - 0.13 in   Unknown
7:00 PM 39.6 °F 35.4 °F 36.5 °F 89% 30.09 in - East 5.8 mph - 0.18 in   Unknown
8:00 PM 39.6 °F 37.4 °F 36.9 °F 90% 30.08 in - East 3.5 mph - 0.12 in   Unknown
9:00 PM 40.3 °F 37.1 °F 37.4 °F 89% 30.08 in - East 4.6 mph - 0.15 in   Unknown
10:00 PM 40 °F - 37 °F 87% 30.08 in - East 4.6 mph - -  
10:00 PM 40.1 °F 36.9 °F 37.4 °F 90% 30.08 in - East 4.6 mph - 0.11 in   Unknown
11:00 PM 40.8 °F 37.8 °F 37.6 °F 88% 30.07 in - East 4.6 mph - 0.11 in   Unknown